Terug naar catalogus

SL-16 DEB

ActiefLEO
NORAD 22604·DEBRIS·🇷🇺 Russia

Gelanceerd Mar 26, 1993 vanaf Baikonur Cosmodrome

Loading…

Volgende Passages (komende 24 uur)

TLE

VersSource: Space-Track

Epoch: Sep 14, 2026, 12:55 UTC

1 22604U 93016N   26257.53841645 -.00000004  00000-0  36713-4 0  9990
2 22604  70.9930 308.3434 0171381 310.4420 117.2135 13.76507899681329

Volg SL-16 DEB in realtime met AllMySat

Download on the App Store